Frenchville, ME

4:11 AM EDT on October 17, 2017 (GMT -0400)
Northern Aroostook Regional

Weather History for KFVE - June, 2013

Change the Weather History Date:

Friday, June 14, 2013

  Actual Average Record
Temperature  
Mean Temperature 61 °F 59 °F  
Max Temperature 75 °F 69 °F 81 °F (1999)
Min Temperature 47 °F 49 °F 39 °F (2002)
Degree Days  
Heating Degree Days 4    
Month to date heating degree days 124  
Since 1 July heating degree days 9006  
Cooling Degree Days 0    
Month to date cooling degree days 0  
Year to date cooling degree days 11  
Growing Degree Days 10 (Base 50)    
Moisture  
Dew Point 50 °F    
Average Humidity 71    
Maximum Humidity 100    
Minimum Humidity 37    
Precipitation  
Precipitation 0.15 in 0.12 in 0.41 in (2014)
Month to date precipitation 2.03 1.56  
Year to date precipitation 11.92 11.46  
Sea Level Pressure  
Sea Level Pressure 29.67 in    
Wind  
Wind Speed 6 mph (NNW)    
Max Wind Speed 22 mph    
Max Gust Speed 32 mph    
Visibility 9 miles    
Events Rain , Thunderstorm    
T = Trace of Precipitation, MM = Missing Value Source: NWS Daily Summary

Daily Weather History Graph

Daily Weather History Graph

Search for Another Location

Airport or City:

Trip Planner

Search our weather history database for the weather conditions in past years. The results will help you decide how hot, cold, wet, or windy it might be!

Date:

Astronomy

Jun. 14, 2013 Rise Set
Actual Time 4:36 AM EDT 8:31 PM EDT
Civil Twilight 3:56 AM EDT 9:11 PM EDT
Nautical Twilight 3:01 AM EDT 10:06 PM EDT
Astronomical Twilight 1:37 AM EDT 11:31 PM EDT
Moon 10:28 AM EDT (6/14) 11:42 PM EDT (6/14)
Length of Visible Light 17h 14m
Length of Day
15h 54m
Waxing Crescent, 30% of the Moon is Illuminated
Jun 14
Waxing Crescent
Jun 16
First Quarter
Jun 23
Full
Jun 30
Last Quarter
Jul 8
New

Hourly Weather History & Observations

Time (EDT) Temp. Dew Point Humidity Pressure Visibility Wind Dir Wind Speed Gust Speed Precip Events Conditions
12:53 AM 53.1 °F 44.1 °F 71% 29.71 in 10.0 mi North 4.6 mph - N/A   Clear
1:53 AM 54.0 °F 45.0 °F 72% 29.71 in 10.0 mi Calm Calm - N/A   Clear
2:53 AM 50.0 °F 44.1 °F 80% 29.70 in 10.0 mi NW 4.6 mph - N/A   Clear
3:53 AM 50.0 °F 44.1 °F 80% 29.68 in 10.0 mi NNW 4.6 mph - N/A   Clear
4:53 AM 48.9 °F 45.0 °F 86% 29.68 in 10.0 mi NW 3.5 mph - N/A   Clear
5:53 AM 50.0 °F 45.0 °F 83% 29.69 in 10.0 mi NW 3.5 mph - N/A   Clear
6:53 AM 52.0 °F 46.9 °F 83% 29.70 in 10.0 mi Calm Calm - N/A   Partly Cloudy
7:53 AM 55.0 °F 48.9 °F 80% 29.69 in 10.0 mi Calm Calm - N/A   Clear
8:53 AM 63.0 °F 48.0 °F 58% 29.69 in 10.0 mi North 4.6 mph - N/A   Clear
9:53 AM 64.9 °F 48.9 °F 56% 29.68 in 10.0 mi NNW 5.8 mph - N/A   Partly Cloudy
10:53 AM 66.9 °F 51.1 °F 57% 29.67 in 10.0 mi Variable 5.8 mph - N/A   Mostly Cloudy
11:53 AM 71.1 °F 52.0 °F 51% 29.65 in 10.0 mi Variable 5.8 mph - N/A   Clear
12:53 PM 73.9 °F 51.1 °F 45% 29.64 in 10.0 mi WNW 10.4 mph - N/A   Partly Cloudy
1:53 PM 73.9 °F 46.0 °F 37% 29.61 in 10.0 mi NW 8.1 mph 19.6 mph N/A   Scattered Clouds
2:06 PM 71.6 °F 48.2 °F 43% 29.63 in 10.0 mi NNW 11.5 mph 21.9 mph N/A Thunderstorm Mostly Cloudy
2:21 PM 71.6 °F 48.2 °F 43% 29.62 in 10.0 mi NW 12.7 mph - N/A   Overcast
2:53 PM 68.0 °F 48.0 °F 49% 29.63 in 10.0 mi SE 11.5 mph - N/A   Mostly Cloudy
3:10 PM 64.4 °F 48.2 °F 56% 29.63 in 10.0 mi SSE 13.8 mph - 0.00 in Rain , Thunderstorm Light Thunderstorms and Rain
3:23 PM 64.4 °F 48.2 °F 56% 29.63 in 10.0 mi South 13.8 mph - 0.00 in Thunderstorm Overcast
3:44 PM 66.2 °F 51.8 °F 60% 29.64 in 10.0 mi ESE 8.1 mph - 0.00 in   Overcast
3:53 PM 66.9 °F 51.1 °F 57% 29.63 in 10.0 mi ESE 6.9 mph - 0.00 in   Overcast
4:53 PM 66.0 °F 48.9 °F 54% 29.63 in 10.0 mi ESE 8.1 mph - N/A   Mostly Cloudy
5:53 PM 64.9 °F 51.1 °F 61% 29.64 in 10.0 mi East 4.6 mph - N/A   Scattered Clouds
6:30 PM 64.4 °F 53.6 °F 68% 29.65 in 10.0 mi NE 5.8 mph - 0.00 in Rain , Thunderstorm Light Rain
6:48 PM 62.6 °F 53.6 °F 72% 29.67 in 10.0 mi NW 11.5 mph - 0.00 in Rain Light Rain
6:53 PM 61.0 °F 52.0 °F 72% 29.68 in 4.0 mi NW 20.7 mph 32.2 mph 0.04 in Rain , Thunderstorm Rain
7:03 PM 59.0 °F 51.8 °F 77% 29.67 in 2.0 mi North 12.7 mph 23.0 mph 0.10 in Rain , Thunderstorm Heavy Rain
7:12 PM 59.0 °F 53.6 °F 82% 29.67 in 8.0 mi ENE 10.4 mph 21.9 mph 0.11 in Rain , Thunderstorm Light Thunderstorms and Rain
7:31 PM 59.0 °F 55.4 °F 88% 29.67 in 10.0 mi East 5.8 mph - 0.11 in   Overcast
7:53 PM 60.1 °F 54.0 °F 80% 29.68 in 10.0 mi East 3.5 mph - 0.11 in   Overcast
8:53 PM 57.0 °F 54.0 °F 89% 29.69 in 10.0 mi South 3.5 mph - N/A   Mostly Cloudy
9:53 PM 57.0 °F 53.1 °F 87% 29.69 in 10.0 mi SSW 3.5 mph - N/A   Partly Cloudy
10:53 PM 55.9 °F 52.0 °F 87% 29.69 in 10.0 mi South 4.6 mph - N/A   Partly Cloudy
11:38 PM 51.8 °F 51.8 °F 100% 29.69 in 1.8 mi NW 3.5 mph - N/A   Partly Cloudy
11:42 PM 51.8 °F 50.0 °F 94% 29.69 in 1.0 mi NW 3.5 mph - N/A   Mist
11:47 PM 51.8 °F 51.8 °F 100% 29.69 in 1.5 mi NW 3.5 mph - N/A   Clear
11:49 PM 51.8 °F 51.8 °F 100% 29.69 in 3.0 mi WNW 4.6 mph - N/A   Clear
11:53 PM 52.0 °F 51.1 °F 97% 29.68 in 6.0 mi NW 4.6 mph - N/A   Clear